Hourly Data Report for August 01, 2021

ALGONQUIN PARK EAST GATE
ONTARIO
Current Station Operator: ECCC - MSC

45°32'00.000" N
78°16'00.000" W
397.00 m
6080192
71581
TNK

Download Data

Hourly Data (August 2021)
Hourly Data Report for August 1, 2021
TIME
LST
Temp Definition
°C
Dew Point Definition
°C
Rel Hum Definition
%
Precip. Amount Definition
mm

Wind Dir Definition
10's deg

Wind Spd Definition
km/h
Visibility Definition
km
Stn Press Definition
kPa
Hmdx Definition


Wind Chill Definition


Weather Definition


00:00 11.9 11.5 97 0.0 0 1   96.45     LegendNANA
01:00 12.0 11.6 97 0.2   0   96.43     LegendNANA
02:00 12.0 11.5 97 4.1 0 1   96.38     LegendNANA
03:00 12.2 11.9 98 1.4   0   96.38     LegendNANA
04:00 12.3 11.9 97 1.1 0 1   96.39     LegendNANA
05:00 12.4 12.0 97 0.1 0 1   96.38     LegendNANA
06:00 12.5 12.1 97 0.0 8 1   96.41     LegendNANA
07:00 12.6 12.1 96 0.0 5 1   96.44     LegendNANA
08:00 13.0 12.3 95 0.0 9 2   96.44     LegendNANA
09:00 13.0 12.2 95 0.0 8 3   96.45     LegendNANA
10:00 13.8 12.4 91 0.0 11 3   96.50     LegendNANA
11:00 14.9 12.3 85 0.0 9 3   96.53     LegendNANA
12:00 14.9 12.4 85 0.0 10 3   96.55     LegendNANA
13:00 15.4 12.6 83 0.0 2 4   96.54     LegendNANA
14:00 15.9 11.9 77 0.0 2 5   96.55     LegendNANA
15:00 17.1 11.8 71 0.0 2 4   96.54     LegendNANA
16:00 17.7 10.6 63 0.0 5 2   96.57     LegendNANA
17:00 16.9 12.6 75 0.0 36 3   96.61     LegendNANA
18:00 15.9 13.2 84 0.0 12 1   96.61     LegendNANA
19:00 15.6 13.6 88 0.0   0   96.64     LegendNANA
20:00 14.4 13.4 94 0.0   0   96.69     LegendNANA
21:00 13.1 12.4 95 0.0   0   96.73     LegendNANA
22:00 11.6 11.1 96 0.0 0 1   96.73     LegendNANA
23:00 10.4 9.9 97 0.0 12 2   96.77     LegendNANA

Notes on Data Quality.

Legend

  • E = Estimated
  • M = Missing
  • NA = Not Available*
  • [empty] = Indicates an unobserved value
Date modified: